FW8385 Weather Reports


time (UTC)temp
F
wind
direction
speed
knots
gust
knots
rain 1hr
in
rain 24hr
in
rain mn
in
humidity
%
barometer
mb
20211017163130 50 190 0.0 2.6 0.00 0.00 0.00 87 1010.9
20211017162607 49 0 0.0 2.6 0.00 0.00 0.00 88 1011.1
20211017162105 48 0 0.0 2.6 0.00 0.00 0.00 86 1011.1
20211017161646 49 0 0.9 2.6 0.00 0.00 0.00 85 1011.2
20211017161048 49 0 0.0 2.6 0.00 0.00 0.00 86 1011.2
20211017160550 49 200 0.0 2.6 0.00 0.00 0.00 87 1011.3
20211017160133 48 0 0.0 4.3 0.00 0.00 0.00 86 1011.3
20211017155548 48 0 0.9 4.3 0.00 0.00 0.00 87 1011.4
20211017155108 48 0 0.0 2.6 0.00 0.00 0.00 87 1011.5
20211017154617 48 321 0.0 2.6 0.00 0.00 0.00 88 1011.4
20211017154110 49 0 0.0 3.5 0.00 0.00 0.00 88 1011.5
20211017153546 49 0 0.0 3.5 0.00 0.00 0.00 89 1011.6
20211017153202 48 294 0.9 3.5 0.00 0.00 0.00 90 1011.6
20211017152548 48 310 0.0 3.5 0.00 0.00 0.00 90 1011.6
20211017152048 48 0 0.0 3.5 0.00 0.00 0.00 89 1011.6
20211017151655 48 117 0.0 4.3 0.00 0.00 0.00 90 1011.6
20211017151053 48 311 0.0 4.3 0.00 0.00 0.00 91 1011.6
20211017150549 47 0 0.0 3.5 0.00 0.00 0.00 90 1011.6
20211017150304 47 0 0.0 3.5 0.00 0.00 0.00 91 1011.6
20211017145548 47 290 0.9 4.3 0.00 0.00 0.00 92 1011.7
20211017145049 47 277 0.0 4.3 0.00 0.00 0.00 92 1011.6
20211017144629 47 348 0.0 2.6 0.00 0.00 0.00 92 1011.6
20211017144047 47 55 0.0 2.6 0.00 0.00 0.00 93 1011.6
20211017143547 46 0 0.0 2.6 0.00 0.00 0.00 93 1011.7
20211017143121 46 0 0.0 2.6 0.00 0.00 0.00 93 1011.6
20211017142548 46 218 0.0 2.6 0.00 0.00 0.00 93 1011.8
20211017142047 46 0 0.0 2.6 0.00 0.00 0.00 93 1011.7
20211017141633 46 0 0.0 2.6 0.00 0.00 0.00 93 1011.8
20211017141056 46 0 0.0 2.6 0.00 0.00 0.00 93 1011.7
20211017140549 46 0 0.0 2.6 0.00 0.00 0.00 93 1011.6
20211017140058 47 0 0.0 3.5 0.00 0.00 0.00 92 1011.6
20211017135545 47 0 0.0 3.5 0.00 0.00 0.00 93 1011.6
20211017135059 47 300 0.0 2.6 0.00 0.00 0.00 93 1011.6
20211017134821 47 0 0.0 4.3 0.00 0.00 0.00 94 1011.7
20211017134047 47 0 0.0 4.3 0.00 0.00 0.00 94 1011.6
20211017133545 47 0 0.9 5.2 0.00 0.00 0.00 95 1011.7
20211017133202 46 0 0.9 5.2 0.00 0.00 0.00 95 1011.6
20211017132544 46 0 0.9 3.5 0.00 0.00 0.00 96 1011.6
20211017132044 45 0 0.0 3.5 0.00 0.00 0.00 96 1011.6
20211017131637 45 306 0.9 3.5 0.00 0.00 0.00 97 1011.5
20211017131043 45 300 0.0 3.5 0.00 0.00 0.00 97 1011.5
20211017130547 45 0 0.0 3.5 0.00 0.00 0.00 97 1011.5
20211017130148 45 0 0.0 3.5 0.00 0.00 0.00 97 1011.5
20211017125604 45 0 0.0 3.5 0.00 0.00 0.00 97 1011.4
20211017125045 45 311 0.0 5.2 0.00 0.00 0.00 97 1011.4
20211017124649 45 0 0.9 5.2 0.00 0.00 0.00 97 1011.3
20211017124046 45 0 0.0 4.3 0.00 0.00 0.00 97 1011.3
20211017123554 45 344 0.0 4.3 0.00 0.00 0.00 98 1011.2
20211017123215 45 0 0.0 4.3 0.00 0.00 0.00 97 1011.3
20211017122545 45 0 0.9 4.3 0.00 0.00 0.00 98 1011.3
20211017122051 44 0 0.0 3.5 0.00 0.00 0.00 98 1011.4
20211017121642 44 300 0.0 3.5 0.00 0.00 0.00 98 1011.2
20211017121049 44 317 0.0 3.5 0.00 0.00 0.00 98 1011.1
20211017120549 44 0 0.0 2.6 0.00 0.00 0.00 98 1011.1
20211017120118 44 0 0.0 2.6 0.00 0.00 0.00 98 1011.1
20211017115546 44 302 0.0 2.6 0.00 0.00 0.00 98 1011.1
20211017115046 44 0 0.0 3.5 0.00 0.00 0.00 98 1011.1
20211017114615 44 302 0.0 3.5 0.00 0.00 0.00 98 1011.1
20211017114048 44 322 0.0 2.6 0.00 0.00 0.00 98 1011.1
20211017113548 44 301 0.0 2.6 0.00 0.00 0.00 98 1011.0
20211017113116 44 288 0.0 2.6 0.00 0.00 0.00 98 1011.0
20211017112546 44 0 0.0 3.5 0.00 0.00 0.00 98 1011.0
20211017112046 43 0 0.0 3.5 0.00 0.00 0.00 98 1010.9
20211017111623 43 0 0.0 2.6 0.00 0.00 0.00 98 1010.8
20211017111052 44 317 0.0 3.5 0.00 0.00 0.00 98 1010.9
20211017110546 44 0 0.0 3.5 0.00 0.00 0.00 98 1010.9
20211017110229 44 311 0.0 2.6 0.00 0.00 0.00 98 1010.7
20211017105546 44 301 0.9 2.6 0.00 0.00 0.00 98 1010.7
20211017105054 44 0 0.0 2.6 0.00 0.00 0.00 98 1010.7
20211017104602 44 313 0.0 1.7 0.00 0.00 0.00 98 1010.7
20211017104056 43 0 0.0 1.7 0.00 0.00 0.00 98 1010.8
20211017103553 44 284 0.0 1.7 0.00 0.00 0.00 98 1010.7
20211017103115 43 319 0.0 3.5 0.00 0.00 0.00 98 1010.7
20211017102554 44 0 0.0 3.5 0.00 0.00 0.00 98 1010.7
20211017102048 44 0 0.0 3.5 0.00 0.00 0.00 98 1010.7
20211017101604 44 0 0.0 2.6 0.00 0.00 0.00 98 1010.7
20211017101052 44 333 0.0 2.6 0.00 0.00 0.00 98 1010.7
20211017100547 44 44 0.0 2.6 0.00 0.00 0.00 98 1010.6
20211017100158 44 323 0.0 1.7 0.00 0.00 0.00 98 1010.7
20211017095548 44 0 0.0 3.5 0.00 0.00 0.00 98 1010.7
20211017095048 44 221 0.9 3.5 0.00 0.00 0.00 98 1010.7
20211017094644 44 285 0.0 2.6 0.00 0.00 0.00 98 1010.7
20211017094047 44 0 0.0 2.6 0.00 0.00 0.00 98 1010.7
20211017093548 44 0 0.0 2.6 0.00 0.00 0.00 98 1010.6
20211017093100 44 246 0.0 2.6 0.00 0.00 0.00 98 1010.6
20211017092548 44 290 0.0 2.6 0.00 0.00 0.00 98 1010.6
20211017092048 44 80 0.0 2.6 0.00 0.00 0.00 98 1010.7
20211017091829 44 0 0.0 3.5 0.00 0.00 0.00 98 1010.6
20211017091057 44 346 0.9 3.5 0.00 0.00 0.00 98 1010.4
20211017090549 43 0 0.0 3.5 0.00 0.00 0.00 98 1010.3
20211017090222 43 352 0.0 3.5 0.00 0.00 0.00 98 1010.3
20211017085547 43 58 0.0 2.6 0.00 0.00 0.00 98 1010.3
20211017085048 43 282 0.0 2.6 0.00 0.00 0.00 98 1010.3
20211017084649 44 288 0.0 2.6 0.00 0.00 0.00 98 1010.3
20211017084051 43 0 0.0 3.5 0.00 0.00 0.00 97 1010.1
20211017083556 43 0 0.0 3.5 0.00 0.00 0.00 97 1010.0
20211017083153 43 309 0.0 2.6 0.00 0.00 0.00 98 1010.0
20211017082548 43 0 0.0 2.6 0.00 0.00 0.00 98 1010.1
20211017082054 43 286 0.0 2.6 0.00 0.00 0.00 98 1010.2
20211017081621 43 0 0.0 2.6 0.00 0.00 0.00 97 1010.4
20211017081047 43 311 0.0 1.7 0.00 0.00 0.00 97 1010.3
20211017080555 43 0 0.0 1.7 0.00 0.00 0.00 97 1010.3
20211017080329 43 317 0.0 1.7 0.00 0.00 0.00 97 1010.1
20211017075549 43 0 0.0 1.7 0.00 0.00 0.00 97 1010.0
20211017075047 43 315 0.0 2.6 0.00 0.00 0.00 97 1010.0
20211017074625 43 5 0.0 2.6 0.00 0.00 0.00 97 1010.0
20211017074048 43 0 0.0 2.6 0.00 0.00 0.00 97 1010.0
20211017073552 43 5 0.0 1.7 0.00 0.00 0.00 97 1010.2
20211017073238 43 0 0.0 1.7 0.00 0.00 0.00 97 1010.1
20211017072550 43 0 0.0 2.6 0.00 0.00 0.00 97 1010.2
20211017072048 43 0 0.0 2.6 0.00 0.00 0.00 97 1010.2
20211017071650 43 0 0.0 1.7 0.00 0.00 0.00 97 1010.1
20211017071048 43 0 0.0 2.6 0.00 0.00 0.00 97 1010.2
20211017070547 43 0 0.0 2.6 0.00 0.00 0.00 97 1010.0
20211017070150 43 0 0.0 2.6 0.00 0.00 0.00 97 1010.0
20211017065548 43 0 0.0 2.6 0.00 0.00 0.00 97 1009.9
20211017065048 44 0 0.0 2.6 0.00 0.00 0.00 97 1009.9
20211017064658 44 345 0.0 1.7 0.00 0.00 0.00 97 1010.0
20211017064057 44 0 0.0 2.6 0.00 0.00 0.00 97 1010.0
20211017063617 44 0 0.0 2.6 0.00 0.00 0.00 97 1010.0
20211017063114 44 352 0.0 1.7 0.00 0.00 0.00 97 1010.0
20211017062557 44 313 0.0 2.6 0.00 0.00 0.00 97 1010.1
20211017062047 44 0 0.0 2.6 0.00 0.00 0.00 97 1010.2
20211017061613 44 0 0.0 1.7 0.00 0.00 0.00 97 1010.3
20211017061048 44 210 0.0 1.7 0.00 0.00 0.00 97 1010.2
20211017060547 44 0 0.0 1.7 0.00 0.00 0.00 97 1010.1
20211017060149 44 0 0.0 1.7 0.00 0.00 0.00 97 1010.2
20211017055603 44 0 0.0 1.7 0.00 0.00 0.00 97 1010.2
20211017055056 44 0 0.0 1.7 0.00 0.00 0.00 96 1010.2
20211017054629 44 0 0.0 1.7 0.00 0.00 0.00 96 1010.2
20211017054047 44 346 0.0 1.7 0.00 0.00 0.00 97 1010.2
20211017053610 44 308 0.0 1.7 0.00 0.00 0.00 97 1010.3
20211017053132 45 0 0.0 1.7 0.00 0.00 0.00 97 1010.3
20211017052549 45 334 0.0 1.7 0.00 0.00 0.00 96 1010.5
20211017052055 45 0 0.0 1.7 0.00 0.00 0.00 96 1010.5
20211017051630 45 316 0.0 1.7 0.00 0.00 0.00 96 1010.4
20211017051048 45 0 0.0 0.9 0.00 0.00 0.00 96 1010.4
20211017050547 45 0 0.0 1.7 0.00 0.00 0.00 96 1010.5
20211017050131 45 0 0.0 1.7 0.00 0.00 0.00 96 1010.5
20211017045547 45 281 0.0 3.5 0.00 0.00 0.00 96 1010.6
20211017045048 45 0 0.0 3.5 0.00 0.00 0.00 96 1010.6
20211017044636 45 313 0.0 2.6 0.00 0.00 0.00 96 1010.6
20211017044059 45 0 0.0 1.7 0.00 0.00 0.00 96 1010.7
20211017043550 45 317 0.0 1.7 0.00 0.00 0.00 96 1010.7
20211017043133 45 0 0.0 1.7 0.00 0.00 0.00 96 1010.7
20211017042548 46 0 0.0 2.6 0.00 0.00 0.00 96 1010.8
20211017042047 46 317 0.0 2.6 0.00 0.00 0.00 96 1010.7
20211017041719 46 338 0.0 1.7 0.00 0.00 0.00 96 1010.9
20211017041048 46 0 0.0 0.9 0.00 0.00 0.00 96 1010.9
20211017040628 46 5 0.0 1.7 0.00 0.00 0.00 96 1010.9
20211017040111 46 0 0.0 1.7 0.00 0.00 0.00 96 1010.8
20211017035600 46 0 0.0 1.7 0.00 0.00 0.00 96 1010.9
20211017035048 45 317 0.0 3.5 0.00 0.00 0.00 96 1010.9
20211017034701 45 0 0.0 3.5 0.00 0.00 0.00 96 1011.0
20211017034049 45 314 0.0 1.7 0.00 0.00 0.00 96 1011.0
20211017033548 45 0 0.0 1.7 0.00 0.00 0.00 96 1010.9
20211017033104 45 57 0.0 1.7 0.00 0.00 0.00 95 1010.9
20211017032549 45 0 0.0 1.7 0.00 0.00 0.00 95 1010.9
20211017032051 46 321 0.0 1.7 0.00 0.00 0.00 95 1010.9
20211017031617 46 0 0.0 1.7 0.00 0.00 0.00 95 1011.0
20211017031048 46 0 0.0 1.7 0.00 0.00 0.00 96 1011.0
20211017030548 46 328 0.0 1.7 0.00 0.00 0.00 96 1011.0
20211017030129 46 322 0.0 1.7 0.00 0.00 0.00 96 1010.9
20211017025548 46 0 0.0 1.7 0.00 0.00 0.00 96 1011.0
20211017025055 46 0 0.0 1.7 0.00 0.00 0.00 96 1011.0
20211017024636 46 0 0.0 2.6 0.00 0.00 0.00 96 1010.8
20211017024048 46 296 0.0 2.6 0.00 0.00 0.00 96 1010.8
20211017023547 46 317 0.0 1.7 0.00 0.00 0.00 96 1010.9
20211017023126 46 0 0.0 1.7 0.00 0.00 0.00 96 1010.8
20211017022549 46 0 0.0 1.7 0.00 0.00 0.00 96 1010.9
20211017022048 46 0 0.0 2.6 0.00 0.00 0.00 96 1010.7
20211017021827 47 0 0.0 2.6 0.00 0.00 0.00 96 1010.7
20211017021047 47 0 0.0 1.7 0.00 0.00 0.00 96 1010.7
20211017020547 47 297 0.0 1.7 0.00 0.00 0.00 96 1010.7
20211017020227 47 0 0.0 1.7 0.00 0.00 0.00 96 1010.5
20211017015605 47 306 0.0 1.7 0.00 0.00 0.00 96 1010.5
20211017015047 47 314 0.0 1.7 0.00 0.00 0.00 96 1010.6
20211017014723 47 0 0.0 1.7 0.00 0.00 0.00 96 1010.5
20211017014048 48 0 0.0 2.6 0.00 0.00 0.00 96 1010.3
20211017013548 48 286 0.0 2.6 0.00 0.00 0.00 95 1010.2
20211017013132 48 352 0.9 2.6 0.00 0.00 0.00 95 1010.0
20211017012547 48 5 0.0 1.7 0.00 0.00 0.00 95 1010.5
20211017012048 49 324 0.0 1.7 0.00 0.00 0.00 95 1010.2
20211017011644 49 330 0.0 1.7 0.00 0.00 0.00 95 1010.3
20211017011053 49 306 0.0 2.6 0.00 0.00 0.00 95 1010.3
20211017010604 50 0 0.0 3.5 0.00 0.00 0.00 95 1010.3
20211017010231 50 0 0.0 3.5 0.00 0.00 0.00 95 1010.2
20211017005548 50 301 0.0 3.5 0.00 0.00 0.00 96 1009.9
20211017005047 50 0 0.0 6.1 0.00 0.00 0.00 96 1009.7
20211017004601 50 323 0.9 6.1 0.00 0.00 0.00 96 1009.6
20211017004047 51 340 0.9 3.5 0.00 0.00 0.00 96 1009.2
20211017003548 51 0 0.0 3.5 0.00 0.00 0.00 96 1009.1
20211017003118 51 0 0.0 3.5 0.00 0.00 0.00 96 1008.9
20211017002548 51 5 0.0 2.6 0.00 0.00 0.00 97 1008.9
20211017002050 51 344 0.0 2.6 0.00 0.00 0.00 96 1008.8
20211017001619 51 313 0.0 3.5 0.00 0.00 0.00 97 1009.3
20211017001047 51 296 0.0 3.5 0.00 0.00 0.00 97 1009.3
20211017000551 51 0 0.0 2.6 0.00 0.00 0.00 97 1009.3
20211017000251 51 0 0.0 2.6 0.00 0.00 0.00 97 1009.1
20211016235556 51 0 0.9 2.6 0.00 0.00 0.00 97 1008.6
20211016235048 51 335 0.9 3.5 0.00 0.00 0.00 96 1008.5
20211016234640 51 344 0.9 3.5 0.00 0.00 0.00 96 1008.1
20211016234047 52 5 0.9 3.5 0.00 0.00 0.00 97 1008.7
20211016233548 52 0 0.9 3.5 0.00 0.00 0.00 97 1009.0
20211016233154 52 306 0.9 3.5 0.00 0.00 0.00 97 1008.6
20211016232547 52 352 0.9 3.5 0.00 0.00 0.00 97 1008.6
20211016232046 52 0 0.9 3.5 0.00 0.00 0.00 97 1007.9
20211016231629 52 5 0.9 4.3 0.00 0.00 0.00 97 1008.0
20211016231114 52 39 0.9 6.1 0.00 0.00 0.00 96 1008.1
20211016230548 52 352 1.7 6.1 0.00 0.00 0.00 96 1008.1
20211016230153 52 314 0.9 5.2 0.00 0.00 0.00 96 1007.9
20211016225548 52 346 0.9 5.2 0.00 0.00 0.00 96 1007.9
20211016225117 52 0 0.9 4.3 0.00 0.00 0.00 96 1008.0
20211016224624 52 5 0.9 7.0 0.00 0.00 0.00 96 1008.2
20211016224047 52 350 0.9 7.0 0.00 0.00 0.00 96 1008.2
20211016223604 52 348 1.7 7.0 0.00 0.00 0.00 96 1008.5
20211016223112 52 0 0.9 7.0 0.00 0.00 0.00 96 1008.3
20211016222548 53 29 0.9 5.2 0.00 0.00 0.00 96 1008.2
20211016222047 53 5 0.9 5.2 0.00 0.00 0.00 96 1007.9
20211016221610 54 343 0.9 7.0 0.00 0.00 0.00 95 1007.7
20211016221052 54 346 1.7 7.8 0.00 0.00 0.00 95 1007.7
20211016220547 55 326 1.7 7.8 0.00 0.00 0.00 96 1007.8
20211016220143 56 0 0.9 6.1 0.00 0.00 0.00 96 1007.7
20211016215548 57 306 0.9 4.3 0.00 0.00 0.00 97 1007.1
20211016215048 57 332 0.0 4.3 0.00 0.00 0.00 97 1006.5
20211016214658 57 0 0.9 3.5 0.00 0.00 0.00 97 1006.2
20211016214047 57 352 0.9 3.5 0.00 0.00 0.00 97 1006.2
20211016213548 57 349 0.0 3.5 0.00 0.00 0.00 97 1006.8
20211016213059 57 352 0.0 3.5 0.00 0.00 0.00 97 1007.1
20211016212548 57 0 0.9 3.5 0.00 0.00 0.00 97 1007.1
20211016212048 57 198 0.0 3.5 0.00 0.00 0.00 96 1006.9
20211016211628 57 106 0.0 4.3 0.00 0.00 0.00 97 1006.7
20211016211055 57 136 0.9 4.3 0.00 0.00 0.00 96 1006.7
20211016210548 57 294 0.0 3.5 0.00 0.00 0.00 97 1006.2
20211016210208 57 289 0.0 3.5 0.00 0.00 0.00 97 1006.0
20211016205549 57 0 0.9 3.5 0.00 0.00 0.00 96 1005.4
20211016205048 57 277 0.0 3.5 0.00 0.00 0.00 96 1005.5
20211016204733 57 0 0.0 3.5 0.00 0.00 0.00 96 1005.7
20211016204105 57 360 0.9 3.5 0.00 0.00 0.00 96 1005.9
20211016203610 57 282 0.9 3.5 0.00 0.00 0.00 96 1006.0
20211016203208 57 221 0.0 2.6 0.00 0.00 0.00 96 1006.2
20211016202601 57 333 0.0 2.6 0.00 0.00 0.00 96 1006.2
20211016202050 58 286 0.0 2.6 0.00 0.00 0.00 96 1006.3
20211016201747 58 0 0.0 2.6 0.00 0.00 0.00 95 1006.4
20211016201048 58 0 0.0 2.6 0.00 0.00 0.00 95 1006.6
20211016200559 58 0 0.0 2.6 0.00 0.00 0.00 95 1006.5
20211016200124 58 188 0.0 2.6 0.00 0.00 0.00 94 1006.1
20211016195547 58 0 0.0 3.5 0.00 0.00 0.00 94 1005.7
20211016195049 58 141 0.9 3.5 0.00 0.00 0.00 95 1005.9
20211016194635 58 0 0.0 2.6 0.00 0.00 0.00 95 1006.3
20211016194054 58 0 0.9 2.6 0.00 0.00 0.00 95 1006.0
20211016193609 58 194 0.0 1.7 0.00 0.00 0.00 95 1006.2
20211016193111 58 0 0.0 2.6 0.00 0.00 0.00 95 1005.9
20211016192548 58 0 0.0 2.6 0.00 0.00 0.00 95 1005.8
20211016192047 58 0 0.0 3.5 0.00 0.00 0.00 95 1005.8
20211016191628 58 0 0.0 3.5 0.00 0.00 0.00 95 1005.6
20211016191048 58 0 0.0 2.6 0.00 0.00 0.00 95 1005.6
20211016190552 58 0 0.0 2.6 0.00 0.00 0.00 95 1005.5
20211016190132 58 0 0.0 3.5 0.00 0.00 0.00 95 1005.3
20211016185548 58 277 0.9 3.5 0.00 0.00 0.00 95 1005.5
20211016185048 58 0 0.0 3.5 0.00 0.00 0.00 94 1005.4
20211016184619 58 0 0.0 3.5 0.00 0.00 0.00 95 1005.2
20211016184100 59 0 0.0 3.5 0.00 0.00 0.00 94 1005.5
20211016183607 59 0 0.0 3.5 0.00 0.00 0.00 93 1005.4
20211016183146 59 111 0.0 3.5 0.00 0.00 0.00 92 1005.4
20211016182548 60 294 0.9 6.1 0.00 0.00 0.00 90 1005.3
20211016182111 62 0 0.9 7.8 0.00 0.00 0.00 84 1006.0
20211016181657 65 0 1.7 10.4 0.00 0.00 0.00 77 1006.0
20211016181047 70 327 2.6 10.4 0.00 0.00 0.00 72 1005.8
20211016180547 71 166 1.7 10.4 0.00 0.00 0.00 78 1004.9
20211016180157 70 198 2.6 9.6 0.00 0.00 0.00 79 1004.6
20211016175547 70 181 2.6 9.6 0.00 0.00 0.00 80 1004.4
20211016175049 70 173 1.7 7.0 0.00 0.00 0.00 80 1004.6
20211016174701 69 197 1.7 7.0 0.00 0.00 0.00 81 1004.7
20211016174049 69 172 2.6 7.0 0.00 0.00 0.00 80 1004.8
20211016173548 69 130 1.7 7.0 0.00 0.00 0.00 80 1005.0
20211016173251 70 146 2.6 7.8 0.00 0.00 0.00 79 1004.9
20211016172547 70 163 1.7 8.7 0.00 0.00 0.00 78 1005.0
20211016172048 69 156 2.6 8.7 0.00 0.00 0.00 79 1005.1
20211016171628 69 180 2.6 9.6 0.00 0.00 0.00 79 1005.1
20211016171047 69 155 3.5 9.6 0.00 0.00 0.00 79 1005.3
20211016170544 69 168 2.6 7.8 0.00 0.00 0.00 79 1005.3
20211016170154 69 173 2.6 9.6 0.00 0.00 0.00 79 1005.5
20211016165558 69 165 2.6 10.4 0.00 0.00 0.00 79 1005.7
20211016165048 69 171 2.6 13.0 0.00 0.00 0.00 81 1005.7
20211016164639 69 156 2.6 13.0 0.00 0.00 0.00 80 1005.7
20211016164106 69 203 5.2 13.0 0.00 0.00 0.00 82 1005.9
20211016163613 69 189 2.6 10.4 0.00 0.00 0.00 80 1005.8